This is the latest recevied weather packets stored in our database for station/object N8QQQ. If no packets are shown the sender has not sent any weather packets the latest 1 day(s).
| Time | Temp. | Humidity | Pressure | Rain* | Wind** | Luminosity | Snow |
|---|---|---|---|---|---|---|---|
| 1778008813 | 5° C | 56% | 1006.5 hPa | 0 mm | 2.24 m/s, 330° | 162 W/m² | - |
| 1778008511 | 4.44° C | 56% | 1006.4 hPa | 0 mm | 0.89 m/s, 302° | 146 W/m² | - |
| 1778008209 | 4.44° C | 58% | 1006.6 hPa | 0 mm | 1.79 m/s, 257° | 126 W/m² | - |
| 1778007903 | 3.89° C | 60% | 1006.5 hPa | 0 mm | 0.45 m/s, 329° | 111 W/m² | - |
| 1778007598 | 3.89° C | 61% | 1006.5 hPa | 0 mm | 2.24 m/s, 348° | 88 W/m² | - |
| 1778007296 | 3.89° C | 62% | 1006.5 hPa | 0 mm | 1.34 m/s, 320° | 78 W/m² | - |
| 1778006992 | 3.89° C | 61% | 1006.3 hPa | 0 mm | 2.24 m/s, 306° | 66 W/m² | - |
| 1778006689 | 3.89° C | 60% | 1006.1 hPa | 0 mm | 2.24 m/s, 335° | 63 W/m² | - |
| 1778006385 | 4.44° C | 60% | 1006.1 hPa | 0 mm | 1.34 m/s, 245° | 64 W/m² | - |
| 1778006083 | 4.44° C | 59% | 1006 hPa | 0 mm | 0.89 m/s, 18° | 78 W/m² | - |
| 1778005779 | 4.44° C | 59% | 1005.8 hPa | 0 mm | 2.24 m/s, 0° | 102 W/m² | - |
| 1778005476 | 4.44° C | 58% | 1005.7 hPa | 0 mm | 1.34 m/s, 284° | 114 W/m² | - |
| 1778005172 | 4.44° C | 58% | 1005.6 hPa | 0 mm | 2.24 m/s, 305° | 143 W/m² | - |
| 1778004870 | 4.44° C | 58% | 1005.6 hPa | 0 mm | 0.45 m/s, 302° | 92 W/m² | - |
| 1778004567 | 4.44° C | 57% | 1005.5 hPa | 0 mm | 1.79 m/s, 326° | 94 W/m² | - |
| 1778004263 | 5° C | 55% | 1005.6 hPa | 0 mm | 2.24 m/s, 255° | 104 W/m² | - |
| 1778003960 | 5° C | 54% | 1005.2 hPa | 0 mm | 2.68 m/s, 2° | 100 W/m² | - |
| 1778003656 | 5° C | 53% | 1005.5 hPa | 0 mm | 0.89 m/s, 344° | 86 W/m² | - |
| 1778003352 | 5.56° C | 53% | 1005.1 hPa | 0 mm | 1.79 m/s, 315° | 139 W/m² | - |
| 1778003050 | 5.56° C | 51% | 1005.4 hPa | 0 mm | 1.79 m/s, 278° | 122 W/m² | - |
| 1778002746 | 5.56° C | 52% | 1005.1 hPa | 0 mm | 0.89 m/s, 359° | 153 W/m² | - |
| 1778002442 | 5.56° C | 51% | 1005.2 hPa | 0 mm | 2.24 m/s, 225° | 187 W/m² | - |
| 1778002140 | 5.56° C | 51% | 1005.3 hPa | 0 mm | 0.89 m/s, 320° | 242 W/m² | - |
| 1778001837 | 5.56° C | 51% | 1005.1 hPa | 0 mm | 1.34 m/s, 307° | 193 W/m² | - |
| 1778001537 | 5° C | 52% | 1005.3 hPa | 0 mm | 1.79 m/s, 263° | 196 W/m² | - |
* Rain latest hour (hover to see other rain measurements)
** Current wind speed in m/s (hover to see current wind gust speed)